{"data":{"norad_id":39472,"epoch":"2026-06-19T20:56:12.023232Z","epoch_age_seconds":8036606,"freshness":"OLD","line1":"1 39472U 13072L   26170.87236138  .06143125  13939-4  11633-2 0  9999","line2":"2 39472 120.4545 178.0508 0004968 253.1176 106.9405 16.31390067117357","mean_motion":16.31390067,"eccentricity":0.0004968,"inclination_deg":120.4545,"raan_deg":178.0508,"arg_perigee_deg":253.1176,"mean_anomaly_deg":106.9405,"bstar":0.0011633,"rev_number":11735,"period_min":88.268282928071,"perigee_km":185.54433098053,"apogee_km":192.06924632893,"semimajor_km":6566.9437886547,"source":"CELESTRAK","updated_at":"2026-06-21T09:00:20.211421Z"}}